| time (UTC) | temp F | wind direction | speed MPH | gust MPH | rain 1hr in | rain 24hr in | rain mn in | humidity % | barometer mb |
| 20260903121531 | 75 | 211 | 6.0 | 8.0 | 0.00 | 0.00 | 0.00 | 94 | 1013.5 |
| 20260903121037 | 75 | 230 | 5.0 | 9.0 | 0.00 | 0.00 | 0.00 | 94 | 1013.4 |
| 20260903120531 | 75 | 213 | 6.0 | 9.0 | 0.00 | 0.00 | 0.00 | 94 | 1013.3 |
| 20260903120022 | 75 | 213 | 6.0 | 9.0 | 0.00 | 0.00 | 0.00 | 94 | 1013.4 |
| 20260903115519 | 75 | 227 | 6.0 | 9.0 | 0.00 | 0.00 | 0.00 | 94 | 1013.3 |
| 20260903115032 | 75 | 210 | 5.0 | 7.0 | 0.00 | 0.00 | 0.00 | 94 | 1013.3 |
| 20260903114519 | 75 | 200 | 4.0 | 8.0 | 0.00 | 0.00 | 0.00 | 94 | 1013.3 |
| 20260903114031 | 75 | 241 | 4.0 | 7.0 | 0.00 | 0.00 | 0.00 | 95 | 1013.3 |
| 20260903113519 | 75 | 223 | 4.0 | 7.0 | 0.00 | 0.00 | 0.00 | 95 | 1013.3 |
| 20260903113037 | 74 | 221 | 4.0 | 7.0 | 0.00 | 0.00 | 0.00 | 95 | 1013.3 |
| 20260903112530 | 74 | 223 | 4.0 | 7.0 | 0.00 | 0.00 | 0.00 | 95 | 1013.3 |
| 20260903112041 | 74 | 210 | 5.0 | 8.0 | 0.00 | 0.00 | 0.00 | 95 | 1013.9 |
| 20260903111549 | 74 | 214 | 5.0 | 8.0 | 0.00 | 0.00 | 0.00 | 95 | 1013.3 |
| 20260903111024 | 74 | 208 | 5.0 | 7.0 | 0.00 | 0.00 | 0.00 | 95 | 1013.2 |
| 20260903110521 | 74 | 214 | 5.0 | 7.0 | 0.00 | 0.00 | 0.00 | 95 | 1013.1 |
| 20260903110021 | 74 | 198 | 5.0 | 8.0 | 0.00 | 0.00 | 0.00 | 95 | 1013.1 |
| 20260903105552 | 74 | 207 | 5.0 | 8.0 | 0.00 | 0.00 | 0.00 | 96 | 1013.2 |
| 20260903105016 | 74 | 211 | 5.0 | 8.0 | 0.00 | 0.00 | 0.00 | 96 | 1013.2 |
| 20260903104526 | 74 | 227 | 5.0 | 6.0 | 0.00 | 0.00 | 0.00 | 96 | 1013.2 |
| 20260903104018 | 73 | 227 | 4.0 | 6.0 | 0.00 | 0.00 | 0.00 | 96 | 1013.3 |
| 20260903103534 | 73 | 227 | 4.0 | 6.0 | 0.00 | 0.00 | 0.00 | 96 | 1013.3 |
| 20260903103031 | 72 | 227 | 3.0 | 5.0 | 0.00 | 0.00 | 0.00 | 96 | 1013.3 |
| 20260903102536 | 71 | 227 | 3.0 | 5.0 | 0.00 | 0.00 | 0.00 | 95 | 1013.3 |
| 20260903102051 | 71 | 227 | 1.0 | 2.0 | 0.00 | 0.00 | 0.00 | 95 | 1013.2 |
| 20260903101530 | 71 | 227 | 1.0 | 2.0 | 0.00 | 0.00 | 0.00 | 95 | 1013.2 |
| 20260903101028 | 71 | 227 | 0.0 | 1.0 | 0.00 | 0.00 | 0.00 | 95 | 1013.3 |
| 20260903100557 | 71 | 227 | 0.0 | 1.0 | 0.00 | 0.00 | 0.00 | 95 | 1013.2 |
| 20260903100024 | 71 | 227 | 0.0 | 1.0 | 0.00 | 0.00 | 0.00 | 95 | 1013.2 |
| 20260903095520 | 71 | 227 | 0.0 | 0.0 | 0.00 | 0.00 | 0.00 | 95 | 1013.2 |
| 20260903095035 | 71 | 227 | 0.0 | 0.0 | 0.00 | 0.00 | 0.00 | 95 | 1013.2 |
| 20260903094536 | 71 | 227 | 0.0 | 0.0 | 0.00 | 0.00 | 0.00 | 95 | 1013.1 |
| 20260903094031 | 71 | 227 | 0.0 | 0.0 | 0.00 | 0.00 | 0.00 | 95 | 1013.3 |
| 20260903093521 | 71 | 227 | 0.0 | 0.0 | 0.00 | 0.00 | 0.00 | 95 | 1013.3 |
| 20260903093031 | 71 | 227 | 0.0 | 0.0 | 0.00 | 0.00 | 0.00 | 95 | 1013.3 |
| 20260903092526 | 71 | 227 | 0.0 | 0.0 | 0.00 | 0.00 | 0.00 | 95 | 1013.2 |
| 20260903092020 | 71 | 227 | 0.0 | 0.0 | 0.00 | 0.00 | 0.00 | 95 | 1013.3 |
| 20260903091537 | 71 | 227 | 0.0 | 0.0 | 0.00 | 0.00 | 0.00 | 95 | 1013.2 |
| 20260903091027 | 71 | 227 | 0.0 | 0.0 | 0.00 | 0.00 | 0.00 | 95 | 1013.2 |
| 20260903090543 | 71 | 227 | 0.0 | 0.0 | 0.00 | 0.00 | 0.00 | 95 | 1013.3 |
| 20260903090045 | 71 | 227 | 0.0 | 0.0 | 0.00 | 0.00 | 0.00 | 95 | 1013.2 |
| 20260903085518 | 71 | 227 | 0.0 | 0.0 | 0.00 | 0.00 | 0.00 | 95 | 1013.1 |
| 20260903085021 | 71 | 227 | 0.0 | 0.0 | 0.00 | 0.00 | 0.00 | 95 | 1013.1 |
| 20260903084535 | 71 | 227 | 0.0 | 0.0 | 0.00 | 0.00 | 0.00 | 95 | 1013.1 |
| 20260903084031 | 71 | 227 | 0.0 | 0.0 | 0.00 | 0.00 | 0.00 | 95 | 1013.2 |
| 20260903083537 | 71 | 227 | 0.0 | 0.0 | 0.00 | 0.00 | 0.00 | 95 | 1013.1 |
| 20260903083025 | 71 | 227 | 0.0 | 0.0 | 0.00 | 0.00 | 0.00 | 95 | 1013.2 |
| 20260903082521 | 71 | 227 | 0.0 | 0.0 | 0.00 | 0.00 | 0.00 | 95 | 1013.2 |
| 20260903082032 | 71 | 227 | 0.0 | 0.0 | 0.00 | 0.00 | 0.00 | 95 | 1013.2 |
| 20260903081523 | 71 | 227 | 0.0 | 0.0 | 0.00 | 0.00 | 0.00 | 94 | 1013.2 |
| 20260903081017 | 71 | 227 | 0.0 | 0.0 | 0.00 | 0.00 | 0.00 | 94 | 1013.2 |
| 20260903080533 | 71 | 227 | 0.0 | 0.0 | 0.00 | 0.00 | 0.00 | 94 | 1013.3 |
| 20260903080032 | 71 | 227 | 0.0 | 0.0 | 0.00 | 0.00 | 0.00 | 94 | 1013.3 |
| 20260903075526 | 71 | 227 | 0.0 | 0.0 | 0.00 | 0.00 | 0.00 | 94 | 1013.3 |
| 20260903075034 | 71 | 227 | 0.0 | 0.0 | 0.00 | 0.00 | 0.00 | 94 | 1013.3 |
| 20260903074535 | 71 | 227 | 0.0 | 0.0 | 0.00 | 0.00 | 0.00 | 94 | 1013.3 |
| 20260903074029 | 71 | 227 | 0.0 | 0.0 | 0.00 | 0.00 | 0.00 | 94 | 1013.2 |
| 20260903073523 | 72 | 227 | 0.0 | 0.0 | 0.00 | 0.00 | 0.00 | 94 | 1013.4 |
| 20260903073030 | 72 | 227 | 0.0 | 0.0 | 0.00 | 0.00 | 0.00 | 94 | 1013.3 |
| 20260903072521 | 72 | 227 | 0.0 | 0.0 | 0.00 | 0.00 | 0.00 | 94 | 1013.4 |
| 20260903072055 | 72 | 227 | 0.0 | 0.0 | 0.00 | 0.00 | 0.00 | 94 | 1013.5 |
| 20260903071531 | 72 | 227 | 0.0 | 0.0 | 0.00 | 0.00 | 0.00 | 94 | 1013.4 |
| 20260903071025 | 72 | 227 | 0.0 | 0.0 | 0.00 | 0.00 | 0.00 | 94 | 1013.5 |
| 20260903070523 | 72 | 227 | 0.0 | 0.0 | 0.00 | 0.00 | 0.00 | 94 | 1013.5 |
| 20260903070019 | 72 | 227 | 0.0 | 0.0 | 0.00 | 0.00 | 0.00 | 94 | 1013.7 |
| 20260903065558 | 72 | 227 | 0.0 | 0.0 | 0.00 | 0.00 | 0.00 | 94 | 1013.8 |
| 20260903065031 | 72 | 227 | 0.0 | 0.0 | 0.00 | 0.00 | 0.00 | 95 | 1013.7 |
| 20260903064529 | 72 | 227 | 0.0 | 0.0 | 0.00 | 0.00 | 0.00 | 95 | 1013.7 |
| 20260903064045 | 72 | 227 | 0.0 | 0.0 | 0.00 | 0.00 | 0.00 | 95 | 1013.8 |
| 20260903063534 | 72 | 227 | 0.0 | 0.0 | 0.00 | 0.00 | 0.00 | 95 | 1013.9 |
| 20260903063023 | 72 | 227 | 0.0 | 0.0 | 0.00 | 0.00 | 0.00 | 95 | 1013.8 |
| 20260903062521 | 72 | 227 | 0.0 | 0.0 | 0.00 | 0.00 | 0.00 | 95 | 1013.9 |
| 20260903062018 | 72 | 227 | 0.0 | 0.0 | 0.00 | 0.00 | 0.00 | 95 | 1013.8 |
| 20260903061537 | 72 | 227 | 0.0 | 0.0 | 0.00 | 0.00 | 0.00 | 95 | 1013.9 |
| 20260903061022 | 72 | 227 | 0.0 | 0.0 | 0.00 | 0.00 | 0.00 | 95 | 1013.9 |
| 20260903060555 | 72 | 227 | 0.0 | 0.0 | 0.00 | 0.00 | 0.00 | 95 | 1014.0 |
| 20260903060016 | 72 | 227 | 0.0 | 0.0 | 0.00 | 0.00 | 0.00 | 95 | 1013.9 |
| 20260903055534 | 72 | 227 | 0.0 | 0.0 | 0.00 | 0.00 | 0.00 | 94 | 1013.9 |
| 20260903055037 | 72 | 227 | 0.0 | 0.0 | 0.00 | 0.00 | 0.00 | 94 | 1013.9 |
| 20260903054535 | 72 | 227 | 0.0 | 0.0 | 0.00 | 0.00 | 0.00 | 94 | 1013.9 |
| 20260903054028 | 72 | 227 | 0.0 | 0.0 | 0.00 | 0.00 | 0.00 | 94 | 1013.8 |
| 20260903053520 | 72 | 227 | 0.0 | 0.0 | 0.00 | 0.00 | 0.00 | 94 | 1014.0 |
| 20260903053030 | 72 | 227 | 0.0 | 0.0 | 0.00 | 0.00 | 0.00 | 94 | 1013.9 |
| 20260903052526 | 72 | 227 | 0.0 | 0.0 | 0.00 | 0.00 | 0.00 | 94 | 1013.9 |
| 20260903052020 | 72 | 227 | 0.0 | 0.0 | 0.00 | 0.00 | 0.00 | 94 | 1013.9 |
| 20260903051559 | 72 | 227 | 0.0 | 1.0 | 0.00 | 0.00 | 0.00 | 94 | 1014.0 |
| 20260903051031 | 73 | 227 | 0.0 | 3.0 | 0.00 | 0.00 | 0.00 | 94 | 1014.0 |
| 20260903050524 | 73 | 227 | 2.0 | 3.0 | 0.00 | 0.00 | 0.00 | 94 | 1014.1 |
| 20260903050052 | 73 | 227 | 0.0 | 2.0 | 0.00 | 0.00 | 0.00 | 94 | 1014.1 |
| 20260903045526 | 73 | 227 | 0.0 | 0.0 | 0.00 | 0.00 | 0.00 | 94 | 1014.1 |
| 20260903045020 | 73 | 227 | 0.0 | 0.0 | 0.00 | 0.00 | 0.00 | 94 | 1014.0 |
| 20260903044524 | 73 | 227 | 0.0 | 1.0 | 0.00 | 0.00 | 0.00 | 94 | 1014.1 |
| 20260903044036 | 73 | 227 | 0.0 | 2.0 | 0.00 | 0.00 | 0.00 | 94 | 1014.2 |
| 20260903043533 | 73 | 227 | 2.0 | 2.0 | 0.00 | 0.00 | 0.00 | 93 | 1014.0 |
| 20260903043022 | 73 | 227 | 0.0 | 0.0 | 0.00 | 0.00 | 0.00 | 93 | 1014.0 |
| 20260903042525 | 73 | 227 | 0.0 | 0.0 | 0.00 | 0.00 | 0.00 | 94 | 1014.1 |
| 20260903042033 | 74 | 227 | 0.0 | 0.0 | 0.00 | 0.00 | 0.00 | 94 | 1014.0 |
| 20260903041529 | 74 | 227 | 0.0 | 0.0 | 0.00 | 0.00 | 0.00 | 94 | 1013.9 |
| 20260903041045 | 74 | 227 | 0.0 | 0.0 | 0.00 | 0.00 | 0.00 | 94 | 1014.0 |
| 20260903040521 | 74 | 227 | 0.0 | 0.0 | 0.00 | 0.00 | 0.00 | 94 | 1014.1 |
| 20260903040032 | 74 | 227 | 0.0 | 0.0 | 0.00 | 0.00 | 0.00 | 94 | 1014.1 |
| 20260903035525 | 74 | 227 | 0.0 | 0.0 | 0.00 | 0.00 | 0.00 | 94 | 1014.1 |
| 20260903035040 | 74 | 227 | 0.0 | 0.0 | 0.00 | 0.00 | 0.00 | 93 | 1014.1 |
| 20260903034529 | 74 | 227 | 0.0 | 0.0 | 0.00 | 0.00 | 0.00 | 94 | 1014.0 |
| 20260903024551 | 75 | 227 | 0.0 | 1.0 | 0.00 | 0.00 | 0.00 | 91 | 1013.8 |
| 20260903024042 | 75 | 227 | 0.0 | 1.0 | 0.00 | 0.00 | 0.00 | 91 | 1013.8 |
| 20260903023536 | 75 | 227 | 0.0 | 2.0 | 0.00 | 0.00 | 0.00 | 91 | 1013.8 |
| 20260903023033 | 75 | 227 | 1.0 | 3.0 | 0.00 | 0.00 | 0.00 | 90 | 1013.8 |
| 20260903022531 | 76 | 227 | 2.0 | 3.0 | 0.00 | 0.00 | 0.00 | 90 | 1013.8 |
| 20260903022018 | 76 | 227 | 0.0 | 0.0 | 0.00 | 0.00 | 0.00 | 89 | 1013.7 |
| 20260903021517 | 76 | 227 | 0.0 | 0.0 | 0.00 | 0.00 | 0.00 | 89 | 1013.7 |
| 20260903021022 | 77 | 227 | 0.0 | 0.0 | 0.00 | 0.00 | 0.00 | 90 | 1013.7 |
| 20260903020533 | 77 | 227 | 0.0 | 0.0 | 0.00 | 0.00 | 0.00 | 89 | 1013.5 |
| 20260903020039 | 77 | 227 | 0.0 | 2.0 | 0.00 | 0.00 | 0.00 | 89 | 1013.6 |
| 20260903015552 | 77 | 227 | 1.0 | 2.0 | 0.00 | 0.00 | 0.00 | 89 | 1013.6 |
| 20260903015025 | 77 | 227 | 1.0 | 2.0 | 0.00 | 0.00 | 0.00 | 89 | 1013.7 |
| 20260903014525 | 77 | 227 | 0.0 | 0.0 | 0.00 | 0.00 | 0.00 | 89 | 1013.7 |
| 20260903014023 | 77 | 227 | 0.0 | 0.0 | 0.00 | 0.00 | 0.00 | 89 | 1013.7 |
| 20260903013534 | 77 | 227 | 0.0 | 0.0 | 0.00 | 0.00 | 0.00 | 89 | 1013.6 |
| 20260903013034 | 77 | 227 | 0.0 | 0.0 | 0.00 | 0.00 | 0.00 | 89 | 1013.5 |
| 20260903012525 | 77 | 227 | 0.0 | 0.0 | 0.00 | 0.00 | 0.00 | 88 | 1013.5 |
| 20260903012034 | 77 | 227 | 0.0 | 0.0 | 0.00 | 0.00 | 0.00 | 87 | 1013.4 |
| 20260903011520 | 77 | 227 | 0.0 | 0.0 | 0.00 | 0.00 | 0.00 | 87 | 1013.5 |
| 20260903011054 | 78 | 227 | 0.0 | 0.0 | 0.00 | 0.00 | 0.00 | 86 | 1013.4 |
| 20260903010524 | 78 | 227 | 0.0 | 0.0 | 0.00 | 0.00 | 0.00 | 85 | 1013.3 |
| 20260903010020 | 78 | 227 | 0.0 | 2.0 | 0.00 | 0.00 | 0.00 | 85 | 1013.3 |
| 20260903005533 | 78 | 227 | 1.0 | 2.0 | 0.00 | 0.00 | 0.00 | 85 | 1013.2 |
| 20260903005020 | 79 | 227 | 0.0 | 2.0 | 0.00 | 0.00 | 0.00 | 84 | 1013.1 |
| 20260903004533 | 79 | 227 | 0.0 | 0.0 | 0.00 | 0.00 | 0.00 | 84 | 1013.1 |
| 20260903004028 | 80 | 227 | 0.0 | 0.0 | 0.00 | 0.00 | 0.00 | 83 | 1013.2 |
| 20260903003520 | 80 | 227 | 0.0 | 0.0 | 0.00 | 0.00 | 0.00 | 83 | 1013.1 |
| 20260903003031 | 80 | 227 | 0.0 | 0.0 | 0.00 | 0.00 | 0.00 | 83 | 1013.1 |
| 20260903002526 | 80 | 227 | 0.0 | 2.0 | 0.00 | 0.00 | 0.00 | 82 | 1013.1 |
| 20260903002023 | 81 | 227 | 0.0 | 2.0 | 0.00 | 0.00 | 0.00 | 81 | 1013.3 |
| 20260903001522 | 81 | 227 | 0.0 | 2.0 | 0.00 | 0.00 | 0.00 | 80 | 1013.3 |
| 20260903001055 | 83 | 227 | 0.0 | 2.0 | 0.00 | 0.00 | 0.00 | 77 | 1013.3 |
| 20260903000517 | 83 | 227 | 1.0 | 2.0 | 0.00 | 0.00 | 0.00 | 75 | 1013.3 |
| 20260903000035 | 83 | 227 | 1.0 | 2.0 | 0.00 | 0.00 | 0.00 | 75 | 1013.3 |
| 20260902235526 | 84 | 227 | 1.0 | 3.0 | 0.00 | 0.00 | 0.00 | 74 | 1013.2 |
| 20260902235019 | 84 | 227 | 2.0 | 3.0 | 0.00 | 0.00 | 0.00 | 73 | 1013.2 |
| 20260902234526 | 84 | 227 | 2.0 | 4.0 | 0.00 | 0.00 | 0.00 | 73 | 1013.2 |
| 20260902234036 | 85 | 227 | 3.0 | 5.0 | 0.00 | 0.00 | 0.00 | 71 | 1013.2 |
| 20260902233537 | 85 | 227 | 4.0 | 5.0 | 0.00 | 0.00 | 0.00 | 71 | 1013.2 |
| 20260902233017 | 85 | 227 | 2.0 | 6.0 | 0.00 | 0.00 | 0.00 | 71 | 1013.0 |
| 20260902232518 | 85 | 227 | 4.0 | 6.0 | 0.00 | 0.00 | 0.00 | 72 | 1013.0 |
| 20260902232059 | 85 | 227 | 4.0 | 6.0 | 0.00 | 0.00 | 0.00 | 70 | 1013.0 |
| 20260902231556 | 85 | 227 | 3.0 | 5.0 | 0.00 | 0.00 | 0.00 | 71 | 1013.0 |
| 20260902231029 | 85 | 227 | 3.0 | 5.0 | 0.00 | 0.00 | 0.00 | 71 | 1013.1 |
| 20260902230544 | 86 | 227 | 2.0 | 5.0 | 0.00 | 0.00 | 0.00 | 70 | 1013.2 |
| 20260902230046 | 86 | 227 | 3.0 | 4.0 | 0.00 | 0.00 | 0.00 | 69 | 1013.1 |
| 20260902225536 | 86 | 227 | 3.0 | 4.0 | 0.00 | 0.00 | 0.00 | 68 | 1013.1 |
| 20260902225033 | 86 | 229 | 3.0 | 4.0 | 0.00 | 0.00 | 0.00 | 69 | 1013.1 |
| 20260902224529 | 86 | 229 | 3.0 | 4.0 | 0.00 | 0.00 | 0.00 | 69 | 1013.1 |
| 20260902224025 | 86 | 184 | 3.0 | 4.0 | 0.00 | 0.00 | 0.00 | 71 | 1013.1 |
| 20260902223536 | 86 | 163 | 3.0 | 4.0 | 0.00 | 0.00 | 0.00 | 70 | 1013.0 |
| 20260902223030 | 85 | 240 | 2.0 | 4.0 | 0.00 | 0.00 | 0.00 | 70 | 1013.2 |
| 20260902222523 | 85 | 265 | 2.0 | 4.0 | 0.00 | 0.00 | 0.00 | 71 | 1013.4 |
| 20260902222039 | 85 | 294 | 2.0 | 4.0 | 0.00 | 0.00 | 0.00 | 71 | 1013.3 |
| 20260902221537 | 85 | 294 | 2.0 | 4.0 | 0.00 | 0.00 | 0.00 | 70 | 1013.2 |
| 20260902221035 | 85 | 294 | 2.0 | 4.0 | 0.00 | 0.00 | 0.00 | 71 | 1013.4 |
| 20260902220521 | 85 | 261 | 2.0 | 6.0 | 0.00 | 0.00 | 0.00 | 72 | 1013.1 |
| 20260902220037 | 85 | 261 | 2.0 | 6.0 | 0.00 | 0.00 | 0.00 | 72 | 1013.3 |
| 20260902215518 | 85 | 305 | 1.0 | 5.0 | 0.00 | 0.00 | 0.00 | 74 | 1013.4 |
| 20260902215033 | 85 | 287 | 3.0 | 5.0 | 0.00 | 0.00 | 0.00 | 72 | 1013.5 |
| 20260902214524 | 85 | 296 | 2.0 | 5.0 | 0.00 | 0.00 | 0.00 | 71 | 1013.3 |
| 20260902214059 | 85 | 241 | 2.0 | 5.0 | 0.00 | 0.00 | 0.00 | 72 | 1013.3 |
| 20260902213523 | 85 | 275 | 2.0 | 7.0 | 0.00 | 0.00 | 0.00 | 72 | 1013.3 |
| 20260902213057 | 85 | 233 | 4.0 | 7.0 | 0.00 | 0.00 | 0.00 | 72 | 1013.6 |
| 20260902212532 | 85 | 242 | 4.0 | 9.0 | 0.00 | 0.00 | 0.00 | 71 | 1013.7 |
| 20260902212038 | 85 | 238 | 4.0 | 8.0 | 0.00 | 0.00 | 0.00 | 71 | 1013.9 |
| 20260902211556 | 85 | 271 | 5.0 | 8.0 | 0.00 | 0.00 | 0.00 | 71 | 1013.7 |
| 20260902211032 | 86 | 241 | 3.0 | 8.0 | 0.00 | 0.00 | 0.00 | 71 | 1013.7 |
| 20260902210524 | 86 | 305 | 2.0 | 8.0 | 0.00 | 0.00 | 0.00 | 72 | 1013.5 |
| 20260902210018 | 86 | 269 | 3.0 | 8.0 | 0.00 | 0.00 | 0.00 | 71 | 1013.9 |
| 20260902205531 | 86 | 325 | 4.0 | 7.0 | 0.00 | 0.00 | 0.00 | 71 | 1014.0 |
| 20260902205017 | 86 | 249 | 3.0 | 7.0 | 0.00 | 0.00 | 0.00 | 70 | 1013.8 |
| 20260902204534 | 86 | 263 | 3.0 | 7.0 | 0.00 | 0.00 | 0.00 | 69 | 1013.7 |
| 20260902204046 | 86 | 240 | 3.0 | 7.0 | 0.00 | 0.00 | 0.00 | 69 | 1013.5 |
| 20260902203541 | 86 | 277 | 2.0 | 7.0 | 0.00 | 0.00 | 0.00 | 69 | 1013.5 |
| 20260902203028 | 87 | 233 | 5.0 | 8.0 | 0.00 | 0.00 | 0.00 | 68 | 1013.7 |
| 20260902202521 | 87 | 224 | 5.0 | 8.0 | 0.00 | 0.00 | 0.00 | 67 | 1013.5 |
| 20260902202032 | 87 | 238 | 6.0 | 10.0 | 0.00 | 0.00 | 0.00 | 68 | 1013.7 |
| 20260902201519 | 87 | 213 | 5.0 | 10.0 | 0.00 | 0.00 | 0.00 | 67 | 1013.9 |
| 20260902201033 | 87 | 235 | 5.0 | 9.0 | 0.00 | 0.00 | 0.00 | 70 | 1013.8 |
| 20260902200538 | 87 | 227 | 7.0 | 11.0 | 0.00 | 0.00 | 0.00 | 70 | 1013.7 |
| 20260902200027 | 87 | 175 | 8.0 | 11.0 | 0.00 | 0.01 | 0.00 | 68 | 1013.7 |
| 20260902195522 | 88 | 227 | 6.0 | 11.0 | 0.00 | 0.01 | 0.00 | 70 | 1013.9 |
| 20260902195038 | 88 | 219 | 7.0 | 11.0 | 0.00 | 0.01 | 0.00 | 69 | 1014.0 |
| 20260902194533 | 88 | 212 | 7.0 | 11.0 | 0.00 | 0.01 | 0.00 | 68 | 1014.0 |
| 20260902194019 | 88 | 220 | 5.0 | 9.0 | 0.00 | 0.01 | 0.00 | 70 | 1014.1 |
| 20260902193534 | 87 | 221 | 5.0 | 11.0 | 0.00 | 0.01 | 0.00 | 69 | 1014.1 |
| 20260902193021 | 87 | 222 | 7.0 | 11.0 | 0.00 | 0.01 | 0.00 | 69 | 1014.2 |
| 20260902192553 | 87 | 234 | 5.0 | 11.0 | 0.00 | 0.01 | 0.00 | 70 | 1014.1 |
| 20260902192022 | 87 | 215 | 7.0 | 11.0 | 0.00 | 0.01 | 0.00 | 69 | 1014.2 |
| 20260902191531 | 87 | 220 | 7.0 | 12.0 | 0.00 | 0.01 | 0.00 | 68 | 1014.0 |
| 20260902191037 | 87 | 222 | 7.0 | 10.0 | 0.00 | 0.01 | 0.00 | 69 | 1014.0 |
| 20260902190552 | 87 | 216 | 6.0 | 10.0 | 0.00 | 0.01 | 0.00 | 69 | 1014.0 |
| 20260902190034 | 87 | 233 | 6.0 | 10.0 | 0.00 | 0.01 | 0.00 | 68 | 1014.0 |
| 20260902185543 | 87 | 217 | 6.0 | 11.0 | 0.00 | 0.01 | 0.00 | 68 | 1013.9 |
| 20260902185019 | 87 | 250 | 8.0 | 11.0 | 0.00 | 0.01 | 0.00 | 67 | 1014.1 |
| 20260902184527 | 88 | 223 | 6.0 | 10.0 | 0.00 | 0.01 | 0.00 | 66 | 1014.1 |
| 20260902184021 | 88 | 225 | 6.0 | 12.0 | 0.00 | 0.01 | 0.00 | 69 | 1014.1 |
| 20260902183551 | 88 | 219 | 7.0 | 12.0 | 0.00 | 0.01 | 0.00 | 67 | 1014.1 |
| 20260902183032 | 88 | 230 | 8.0 | 12.0 | 0.00 | 0.01 | 0.00 | 68 | 1014.3 |
| 20260902182548 | 87 | 237 | 8.0 | 11.0 | 0.00 | 0.01 | 0.00 | 69 | 1014.2 |
| 20260902182042 | 87 | 220 | 6.0 | 12.0 | 0.00 | 0.01 | 0.00 | 69 | 1014.3 |
| 20260902181519 | 87 | 206 | 8.0 | 12.0 | 0.00 | 0.01 | 0.00 | 68 | 1014.3 |
| 20260902181027 | 87 | 219 | 6.0 | 8.0 | 0.00 | 0.01 | 0.00 | 69 | 1014.3 |
| 20260902180521 | 87 | 233 | 4.0 | 8.0 | 0.00 | 0.01 | 0.00 | 69 | 1014.1 |
| 20260902180017 | 87 | 229 | 4.0 | 8.0 | 0.00 | 0.01 | 0.00 | 71 | 1014.1 |
| 20260902175533 | 87 | 209 | 5.0 | 10.0 | 0.00 | 0.01 | 0.00 | 70 | 1014.2 |
| 20260902175018 | 87 | 236 | 5.0 | 10.0 | 0.00 | 0.01 | 0.00 | 70 | 1014.3 |
| 20260902174538 | 87 | 184 | 5.0 | 10.0 | 0.00 | 0.01 | 0.00 | 70 | 1014.4 |
| 20260902174026 | 87 | 213 | 6.0 | 10.0 | 0.00 | 0.01 | 0.00 | 71 | 1014.6 |
| 20260902173518 | 86 | 228 | 4.0 | 10.0 | 0.00 | 0.01 | 0.00 | 73 | 1014.5 |
| 20260902173052 | 86 | 192 | 6.0 | 9.0 | 0.00 | 0.01 | 0.00 | 71 | 1014.6 |
| 20260902172528 | 86 | 263 | 4.0 | 10.0 | 0.00 | 0.01 | 0.00 | 72 | 1014.5 |
| 20260902172022 | 86 | 246 | 4.0 | 8.0 | 0.00 | 0.01 | 0.00 | 74 | 1014.6 |
| 20260902171521 | 85 | 306 | 5.0 | 9.0 | 0.00 | 0.01 | 0.00 | 75 | 1014.7 |
| 20260902171032 | 84 | 205 | 5.0 | 7.0 | 0.00 | 0.01 | 0.00 | 77 | 1014.7 |
| 20260902170528 | 84 | 197 | 5.0 | 8.0 | 0.00 | 0.01 | 0.00 | 77 | 1014.8 |
| 20260902170026 | 83 | 191 | 4.0 | 9.0 | 0.00 | 0.01 | 0.00 | 77 | 1014.7 |
| 20260902165522 | 83 | 263 | 4.0 | 9.0 | 0.00 | 0.01 | 0.00 | 75 | 1014.7 |
| 20260902165018 | 83 | 244 | 6.0 | 10.0 | 0.00 | 0.01 | 0.00 | 75 | 1014.8 |
| 20260902164533 | 84 | 211 | 5.0 | 10.0 | 0.00 | 0.01 | 0.00 | 74 | 1014.8 |
| 20260902164017 | 84 | 206 | 4.0 | 10.0 | 0.00 | 0.01 | 0.00 | 74 | 1014.7 |
| 20260902163532 | 84 | 223 | 5.0 | 10.0 | 0.00 | 0.01 | 0.00 | 76 | 1014.9 |
| 20260902163031 | 83 | 260 | 3.0 | 9.0 | 0.00 | 0.01 | 0.00 | 74 | 1014.6 |
| 20260902162528 | 84 | 163 | 2.0 | 10.0 | 0.00 | 0.01 | 0.00 | 75 | 1014.6 |
| 20260902162023 | 84 | 240 | 5.0 | 10.0 | 0.00 | 0.01 | 0.00 | 77 | 1014.7 |
| 20260902161526 | 83 | 190 | 6.0 | 8.0 | 0.00 | 0.01 | 0.00 | 77 | 1014.7 |
| 20260902161042 | 82 | 163 | 4.0 | 7.0 | 0.00 | 0.01 | 0.00 | 79 | 1014.6 |
| 20260902160557 | 82 | 205 | 4.0 | 7.0 | 0.00 | 0.01 | 0.00 | 77 | 1014.7 |
| 20260902160030 | 82 | 176 | 5.0 | 7.0 | 0.00 | 0.01 | 0.00 | 80 | 1014.7 |
| 20260902155524 | 82 | 175 | 2.0 | 5.0 | 0.00 | 0.01 | 0.00 | 77 | 1014.9 |
| 20260902155034 | 82 | 210 | 3.0 | 5.0 | 0.00 | 0.01 | 0.00 | 79 | 1014.8 |
| 20260902154535 | 82 | 336 | 2.0 | 5.0 | 0.00 | 0.01 | 0.00 | 79 | 1015.0 |
| 20260902154032 | 82 | 185 | 1.0 | 3.0 | 0.00 | 0.01 | 0.00 | 77 | 1014.9 |
| 20260902153518 | 83 | 284 | 1.0 | 4.0 | 0.00 | 0.01 | 0.00 | 79 | 1014.7 |
| 20260902153038 | 81 | 284 | 2.0 | 5.0 | 0.00 | 0.01 | 0.00 | 81 | 1014.8 |
| 20260902152032 | 80 | 273 | 3.0 | 6.0 | 0.00 | 0.01 | 0.00 | 82 | 1014.8 |
| 20260902151519 | 80 | 266 | 3.0 | 6.0 | 0.00 | 0.01 | 0.00 | 81 | 1014.7 |
| 20260902151034 | 80 | 238 | 1.0 | 4.0 | 0.00 | 0.01 | 0.00 | 81 | 1014.7 |
| 20260902150519 | 80 | 238 | 2.0 | 4.0 | 0.00 | 0.01 | 0.00 | 82 | 1014.6 |
| 20260902150036 | 80 | 270 | 2.0 | 4.0 | 0.00 | 0.01 | 0.00 | 80 | 1014.5 |
| 20260902145518 | 80 | 96 | 1.0 | 2.0 | 0.00 | 0.01 | 0.00 | 81 | 1014.5 |
| 20260902145017 | 81 | 96 | 0.0 | 3.0 | 0.00 | 0.01 | 0.00 | 81 | 1014.4 |
| 20260902144554 | 80 | 96 | 1.0 | 6.0 | 0.00 | 0.01 | 0.00 | 83 | 1014.2 |
| 20260902144026 | 80 | 96 | 2.0 | 6.0 | 0.00 | 0.01 | 0.00 | 82 | 1014.3 |
| 20260902143523 | 80 | 108 | 3.0 | 7.0 | 0.00 | 0.01 | 0.00 | 83 | 1014.1 |
| 20260902143020 | 79 | 117 | 3.0 | 8.0 | 0.00 | 0.01 | 0.00 | 83 | 1014.1 |
| 20260902142533 | 79 | 103 | 5.0 | 10.0 | 0.00 | 0.01 | 0.00 | 82 | 1014.2 |
| 20260902142018 | 80 | 96 | 4.0 | 10.0 | 0.00 | 0.01 | 0.00 | 82 | 1014.3 |
| 20260902141517 | 79 | 67 | 2.0 | 8.0 | 0.00 | 0.01 | 0.00 | 82 | 1014.2 |
| 20260902141032 | 79 | 92 | 4.0 | 10.0 | 0.00 | 0.01 | 0.00 | 81 | 1014.3 |
| 20260902140541 | 78 | 101 | 5.0 | 11.0 | 0.00 | 0.01 | 0.00 | 82 | 1014.4 |
| 20260902140035 | 78 | 70 | 6.0 | 11.0 | 0.00 | 0.01 | 0.00 | 82 | 1014.3 |
| 20260902135531 | 78 | 140 | 7.0 | 11.0 | 0.00 | 0.01 | 0.00 | 83 | 1014.5 |
| 20260902135030 | 77 | 86 | 8.0 | 10.0 | 0.00 | 0.01 | 0.00 | 85 | 1014.7 |
| 20260902134541 | 77 | 102 | 6.0 | 10.0 | 0.00 | 0.01 | 0.00 | 86 | 1014.9 |
| 20260902134017 | 76 | 90 | 5.0 | 9.0 | 0.00 | 0.01 | 0.00 | 87 | 1015.1 |
| 20260902133521 | 76 | 118 | 4.0 | 10.0 | 0.00 | 0.01 | 0.00 | 88 | 1015.1 |
| 20260902133035 | 76 | 113 | 4.0 | 10.0 | 0.00 | 0.01 | 0.00 | 89 | 1015.2 |
| 20260902132538 | 75 | 93 | 5.0 | 9.0 | 0.00 | 0.01 | 0.00 | 90 | 1015.3 |
| 20260902132034 | 75 | 103 | 5.0 | 9.0 | 0.00 | 0.01 | 0.00 | 91 | 1015.3 |
| 20260902131534 | 75 | 122 | 4.0 | 7.0 | 0.00 | 0.01 | 0.00 | 91 | 1015.3 |
| 20260902131030 | 74 | 117 | 1.0 | 9.0 | 0.00 | 0.01 | 0.00 | 91 | 1015.3 |
| 20260902130529 | 74 | 123 | 5.0 | 9.0 | 0.00 | 0.01 | 0.00 | 92 | 1015.3 |
| 20260902130034 | 74 | 127 | 5.0 | 7.0 | 0.00 | 0.01 | 0.00 | 92 | 1015.2 |
| 20260902125518 | 74 | 114 | 4.0 | 7.0 | 0.00 | 0.01 | 0.00 | 92 | 1015.5 |
| 20260902125034 | 74 | 99 | 2.0 | 4.0 | 0.00 | 0.01 | 0.00 | 92 | 1015.5 |
| 20260902124524 | 74 | 99 | 1.0 | 3.0 | 0.00 | 0.01 | 0.00 | 92 | 1015.4 |
| 20260902124041 | 74 | 99 | 1.0 | 3.0 | 0.00 | 0.01 | 0.00 | 92 | 1015.4 |
| 20260902123535 | 74 | 99 | 1.0 | 2.0 | 0.00 | 0.01 | 0.00 | 92 | 1015.5 |
| 20260902123053 | 74 | 99 | 1.0 | 3.0 | 0.00 | 0.01 | 0.00 | 92 | 1015.5 |
| 20260902122538 | 73 | 99 | 0.0 | 3.0 | 0.00 | 0.01 | 0.00 | 92 | 1015.4 |
| 20260902122030 | 73 | 99 | 1.0 | 4.0 | 0.00 | 0.01 | 0.00 | 92 | 1015.2 |